K6OUA-11 Weather Reports


time (UTC)temp
C
wind
direction
speed
KPH
gust
KPH
rain 1hr
cm
rain 24hr
cm
rain mn
cm
humidity
%
barometer
mb
20260831042345 20 292 4.8 8.0 0.00 0.00 0.00 74
20260831042143 20 274 6.4 6.4 0.00 0.00 0.00 73
20260831041941 21 286 0.0 6.4 0.00 0.00 0.00 73
20260831041739 21 282 1.6 8.0 0.00 0.00 0.00 73
20260831041538 21 293 3.2 8.0 0.00 0.00 0.00 73
20260831041336 21 279 4.8 8.0 0.00 0.00 0.00 73
20260831041134 21 284 6.4 8.0 0.00 0.00 0.00 73
20260831040932 21 289 4.8 8.0 0.00 0.00 0.00 72
20260831040730 21 274 8.0 6.4 0.00 0.00 0.00 72
20260831040528 21 275 4.8 6.4 0.00 0.00 0.00 72
20260831040326 21 289 6.4 6.4 0.00 0.00 0.00 71
20260831040124 21 288 3.2 11.3 0.00 0.00 0.00 70
20260831035922 21 281 3.2 11.3 0.00 0.00 0.00 70
20260831035720 21 286 4.8 11.3 0.00 0.00 0.00 70
20260831035518 21 285 8.0 11.3 0.00 0.00 0.00 70
20260831035316 21 299 4.8 11.3 0.00 0.00 0.00 70
20260831035114 21 274 8.0 8.0 0.00 0.00 0.00 69
20260831034912 21 279 8.0 8.0 0.00 0.00 0.00 69
20260831034508 21 300 3.2 6.4 0.00 0.00 0.00 68
20260831034306 22 284 8.0 6.4 0.00 0.00 0.00 68
20260831034104 22 291 6.4 6.4 0.00 0.00 0.00 67
20260831033902 22 299 4.8 6.4 0.00 0.00 0.00 67
20260831033700 22 296 4.8 3.2 0.00 0.00 0.00 67
20260831033458 21 302 4.8 3.2 0.00 0.00 0.00 67
20260831033256 22 289 1.6 3.2 0.00 0.00 0.00 67
20260831033054 22 222 0.0 0.0 0.00 0.00 0.00 67
20260831032650 22 222 0.0 0.0 0.00 0.00 0.00 67
20260831032448 22 222 0.0 0.0 0.00 0.00 0.00 66
20260831032246 22 222 0.0 0.0 0.00 0.00 0.00 67
20260831032044 22 222 0.0 1.6 0.00 0.00 0.00 66
20260831031842 22 222 0.0 1.6 0.00 0.00 0.00 66
20260831031640 22 222 0.0 1.6 0.00 0.00 0.00 66
20260831031438 22 222 0.0 1.6 0.00 0.00 0.00 66
20260831031236 22 209 1.6 0.0 0.00 0.00 0.00 65
20260831031035 22 209 0.0 0.0 0.00 0.00 0.00 64
20260831030833 22 209 0.0 0.0 0.00 0.00 0.00 64
20260831030631 22 209 0.0 0.0 0.00 0.00 0.00 64
20260831030429 22 209 0.0 0.0 0.00 0.00 0.00 63
20260831030227 22 209 0.0 0.0 0.00 0.00 0.00 63
20260831030025 22 209 0.0 0.0 0.00 0.00 0.00 63
20260831025823 22 209 0.0 0.0 0.00 0.00 0.00 62
20260831025621 22 209 0.0 3.2 0.00 0.00 0.00 62
20260831025419 22 209 0.0 3.2 0.00 0.00 0.00 62
20260831025217 23 209 0.0 0.0 0.00 0.00 0.00 62
20260831025015 23 209 0.0 0.0 0.00 0.00 0.00 61
20260831024813 23 216 0.0 0.0 0.00 0.00 0.00 61
20260831024611 23 216 0.0 0.0 0.00 0.00 0.00 60
20260831024411 23 216 0.0 0.0 0.00 0.00 0.00 60
20260831024207 23 216 0.0 0.0 0.00 0.00 0.00 60
20260831024005 23 216 0.0 0.0 0.00 0.00 0.00 59
20260831023803 23 216 0.0 0.0 0.00 0.00 0.00 59
20260831023601 23 216 0.0 0.0 0.00 0.00 0.00 59
20260831023359 23 216 0.0 0.0 0.00 0.00 0.00 59
20260831023157 23 216 0.0 0.0 0.00 0.00 0.00 59
20260831022955 23 216 0.0 0.0 0.00 0.00 0.00 59
20260831022753 23 216 0.0 0.0 0.00 0.00 0.00 58
20260831022551 23 216 0.0 0.0 0.00 0.00 0.00 58
20260831022349 24 216 0.0 0.0 0.00 0.00 0.00 58
20260831022147 24 216 0.0 4.8 0.00 0.00 0.00 58
20260831021945 24 216 0.0 4.8 0.00 0.00 0.00 58
20260831021743 24 216 0.0 4.8 0.00 0.00 0.00 57
20260831021541 24 216 0.0 4.8 0.00 0.00 0.00 57
20260831021339 24 248 0.0 4.8 0.00 0.00 0.00 57
20260831021138 24 198 0.0 6.4 0.00 0.00 0.00 57
20260831020936 25 257 0.0 6.4 0.00 0.00 0.00 57
20260831020734 25 257 0.0 8.0 0.00 0.00 0.00 56
20260831020532 25 237 0.0 8.0 0.00 0.00 0.00 56
20260831020330 25 285 4.8 8.0 0.00 0.00 0.00 56
20260831020128 25 270 0.0 8.0 0.00 0.00 0.00 56
20260831015724 25 291 6.4 9.7 0.00 0.00 0.00 56
20260831015522 25 258 1.6 9.7 0.00 0.00 0.00 56
20260831015118 25 288 6.4 9.7 0.00 0.00 0.00 55
20260831014916 25 215 1.6 9.7 0.00 0.00 0.00 55
20260831014714 25 268 9.7 6.4 0.00 0.00 0.00 55
20260831014512 25 270 3.2 6.4 0.00 0.00 0.00 55
20260831014310 25 264 0.0 6.4 0.00 0.00 0.00 55
20260831014110 25 289 1.6 12.9 0.00 0.00 0.00 55
20260831013906 25 254 1.6 12.9 0.00 0.00 0.00 55
20260831013704 25 272 4.8 12.9 0.00 0.00 0.00 55
20260831013504 25 257 4.8 12.9 0.00 0.00 0.00 54
20260831013300 25 241 9.7 12.9 0.00 0.00 0.00 54
20260831013058 26 270 6.4 16.1 0.00 0.00 0.00 54
20260831012856 26 255 6.4 16.1 0.00 0.00 0.00 54
20260831012654 26 275 9.7 12.9 0.00 0.00 0.00 54
20260831012452 26 303 11.3 12.9 0.00 0.00 0.00 54
20260831012250 26 272 9.7 12.9 0.00 0.00 0.00 54
20260831012048 26 288 8.0 12.9 0.00 0.00 0.00 54
20260831011644 26 270 6.4 8.0 0.00 0.00 0.00 53
20260831011443 26 275 9.7 8.0 0.00 0.00 0.00 53
20260831011038 26 265 0.0 17.7 0.00 0.00 0.00 54
20260831010637 26 274 9.7 19.3 0.00 0.00 0.00 55
20260831010231 26 261 17.7 19.3 0.00 0.00 0.00 54
20260831005827 26 262 9.7 19.3 0.00 0.00 0.00 55
20260831005626 26 258 6.4 20.9 0.00 0.00 0.00 55
20260831005423 26 270 16.1 20.9 0.00 0.00 0.00 55
20260831005221 26 262 14.5 22.5 0.00 0.00 0.00 54
20260831005019 26 248 12.9 22.5 0.00 0.00 0.00 54
20260831004817 26 264 16.1 22.5 0.00 0.00 0.00 53
20260831004615 26 253 8.0 24.1 0.00 0.00 0.00 54
20260831004413 26 278 16.1 24.1 0.00 0.00 0.00 54
20260831004009 26 271 17.7 25.7 0.00 0.00 0.00 54
20260831003807 26 277 12.9 25.7 0.00 0.00 0.00 53
20260831003605 26 271 17.7 24.1 0.00 0.00 0.00 53
20260831003403 26 258 14.5 24.1 0.00 0.00 0.00 53
20260831003000 26 248 14.5 17.7 0.00 0.00 0.00 53
20260831002758 27 270 20.9 17.7 0.00 0.00 0.00 53
20260831002556 27 255 12.9 24.1 0.00 0.00 0.00 52
20260831002354 27 251 9.7 24.1 0.00 0.00 0.00 52
20260831002153 27 277 14.5 20.9 0.00 0.00 0.00 53
20260831001950 27 264 14.5 20.9 0.00 0.00 0.00 53
20260831001748 27 264 12.9 20.9 0.00 0.00 0.00 52
20260831001546 27 246 12.9 20.9 0.00 0.00 0.00 53
20260831001344 27 279 12.9 20.9 0.00 0.00 0.00 53
20260831001142 27 257 19.3 22.5 0.00 0.00 0.00 53
20260831000940 27 262 12.9 22.5 0.00 0.00 0.00 52
20260831000740 27 251 11.3 24.1 0.00 0.00 0.00 52
20260831000536 27 264 11.3 24.1 0.00 0.00 0.00 52
20260831000336 27 253 16.1 24.1 0.00 0.00 0.00 52
20260830235930 27 264 14.5 20.9 0.00 0.00 0.00 52
20260830235731 27 258 16.1 22.5 0.00 0.00 0.00 51
20260830235528 28 279 12.9 22.5 0.00 0.00 0.00 50
20260830235324 28 265 14.5 22.5 0.00 0.00 0.00 50
20260830235122 28 265 14.5 22.5 0.00 0.00 0.00 50
20260830234920 28 241 16.1 22.5 0.00 0.00 0.00 50
20260830234718 28 240 14.5 19.3 0.00 0.00 0.00 49
20260830234519 28 262 11.3 19.3 0.00 0.00 0.00 49
20260830234315 28 261 11.3 19.3 0.00 0.00 0.00 50
20260830234113 28 267 14.5 19.3 0.00 0.00 0.00 50
20260830233913 28 237 11.3 19.3 0.00 0.00 0.00 51
20260830233711 28 264 11.3 17.7 0.00 0.00 0.00 51
20260830233546 28 255 14.5 17.7 0.00 0.00 0.00 51
20260830233508 28 255 14.5 17.7 0.00 0.00 0.00 51
20260830233305 28 247 9.7 17.7 0.00 0.00 0.00 51
20260830233105 28 275 8.0 19.3 0.00 0.00 0.00 50
20260830232903 28 255 14.5 19.3 0.00 0.00 0.00 49
20260830232701 28 277 11.3 25.7 0.00 0.00 0.00 49
20260830232457 28 260 12.9 25.7 0.00 0.00 0.00 50
20260830232255 28 268 14.5 25.7 0.00 0.00 0.00 50
20260830232053 28 274 14.5 25.7 0.00 0.00 0.00 50
20260830231851 28 229 14.5 25.7 0.00 0.00 0.00 50
20260830231651 28 258 17.7 25.7 0.00 0.00 0.00 50
20260830231247 28 244 17.7 17.7 0.00 0.00 0.00 49
20260830231043 28 265 12.9 17.7 0.00 0.00 0.00 48
20260830230843 28 267 20.9 17.7 0.00 0.00 0.00 48
20260830230639 28 255 9.7 17.7 0.00 0.00 0.00 49
20260830230439 28 281 9.7 17.7 0.00 0.00 0.00 48
20260830230237 28 253 16.1 19.3 0.00 0.00 0.00 49
20260830230035 28 258 11.3 19.3 0.00 0.00 0.00 49
20260830225833 28 261 11.3 19.3 0.00 0.00 0.00 48
20260830225630 28 258 9.7 20.9 0.00 0.00 0.00 48
20260830225428 28 258 11.3 20.9 0.00 0.00 0.00 49
20260830225227 28 277 9.7 14.5 0.00 0.00 0.00 49
20260830225025 28 262 12.9 14.5 0.00 0.00 0.00 50
20260830224621 28 261 6.4 17.7 0.00 0.00 0.00 51
20260830224420 28 272 9.7 17.7 0.00 0.00 0.00 50
20260830224217 28 265 8.0 16.1 0.00 0.00 0.00 50
20260830224016 28 240 3.2 16.1 0.00 0.00 0.00 49
20260830223814 29 265 3.2 16.1 0.00 0.00 0.00 49
20260830223610 29 248 11.3 19.3 0.00 0.00 0.00 48
20260830223410 29 248 11.3 19.3 0.00 0.00 0.00 47
20260830223206 30 277 12.9 20.9 0.00 0.00 0.00 47
20260830223006 30 286 9.7 20.9 0.00 0.00 0.00 47
20260830222804 30 288 6.4 20.9 0.00 0.00 0.00 47
20260830222603 30 270 14.5 19.3 0.00 0.00 0.00 46
20260830222400 30 282 14.5 19.3 0.00 0.00 0.00 47
20260830222158 30 268 8.0 17.7 0.00 0.00 0.00 46
20260830221956 30 248 9.7 17.7 0.00 0.00 0.00 46
20260830221755 30 268 9.7 17.7 0.00 0.00 0.00 46
20260830221351 29 264 9.7 17.7 0.00 0.00 0.00 47
20260830221149 29 278 4.8 20.9 0.00 0.00 0.00 48
20260830220946 29 270 14.5 20.9 0.00 0.00 0.00 48
20260830220745 29 251 9.7 19.3 0.00 0.00 0.00 49
20260830220543 28 257 16.1 19.3 0.00 0.00 0.00 48
20260830220139 28 267 12.9 17.7 0.00 0.00 0.00 49
20260830215935 28 270 11.3 17.7 0.00 0.00 0.00 49
20260830215736 28 258 4.8 20.9 0.00 0.00 0.00 50
20260830215329 28 260 6.4 20.9 0.00 0.00 0.00 50
20260830215127 28 278 8.0 19.3 0.00 0.00 0.00 49
20260830214927 29 260 12.9 19.3 0.00 0.00 0.00 49
20260830214725 29 247 8.0 24.1 0.00 0.00 0.00 49
20260830214523 28 230 11.3 24.1 0.00 0.00 0.00 50
20260830214321 28 262 9.7 24.1 0.00 0.00 0.00 50
20260830214120 28 270 16.1 20.9 0.00 0.00 0.00 50
20260830213917 28 257 12.9 20.9 0.00 0.00 0.00 50
20260830213513 28 260 20.9 22.5 0.00 0.00 0.00 50
20260830213311 28 258 11.3 22.5 0.00 0.00 0.00 50
20260830213110 28 222 8.0 19.3 0.00 0.00 0.00 51
20260830212908 28 274 9.7 19.3 0.00 0.00 0.00 50
20260830212705 28 268 14.5 19.3 0.00 0.00 0.00 51
20260830212504 28 270 12.9 19.3 0.00 0.00 0.00 51
20260830212305 28 255 6.4 19.3 0.00 0.00 0.00 51
20260830212100 28 225 8.0 24.1 0.00 0.00 0.00 50
20260830211858 28 265 11.3 24.1 0.00 0.00 0.00 50
20260830211454 28 271 11.3 20.9 0.00 0.00 0.00 51
20260830211252 28 255 6.4 20.9 0.00 0.00 0.00 51
20260830211050 28 268 12.9 19.3 0.00 0.00 0.00 51
20260830210646 28 258 14.5 24.1 0.00 0.00 0.00 52
20260830210442 28 255 8.0 24.1 0.00 0.00 0.00 52
20260830210240 28 253 14.5 25.7 0.00 0.00 0.00 52
20260830210038 28 279 11.3 25.7 0.00 0.00 0.00 51
20260830205636 27 258 17.7 22.5 0.00 0.00 0.00 53
20260830205432 28 288 12.9 22.5 0.00 0.00 0.00 53
20260830205233 28 285 12.9 25.7 0.00 0.00 0.00 52
20260830204828 28 250 17.7 25.7 0.00 0.00 0.00 51
20260830204627 28 250 14.5 25.7 0.00 0.00 0.00 50
20260830204425 28 268 12.9 25.7 0.00 0.00 0.00 50
20260830204223 28 279 12.9 27.4 0.00 0.00 0.00 50
20260830204020 29 268 8.0 27.4 0.00 0.00 0.00 50
20260830203819 28 258 14.5 27.4 0.00 0.00 0.00 50
20260830203615 28 239 12.9 27.4 0.00 0.00 0.00 50
20260830203415 28 254 17.7 27.4 0.00 0.00 0.00 50
20260830203011 29 265 14.5 27.4 0.00 0.00 0.00 50
20260830202809 29 268 12.9 27.4 0.00 0.00 0.00 49
20260830202606 28 250 12.9 27.4 0.00 0.00 0.00 49
20260830202405 28 267 12.9 27.4 0.00 0.00 0.00 50
20260830202203 28 286 14.5 22.5 0.00 0.00 0.00 49
20260830201757 29 254 12.9 22.5 0.00 0.00 0.00 48
20260830201557 29 279 16.1 24.1 0.00 0.00 0.00 48
20260830201355 29 234 17.7 24.1 0.00 0.00 0.00 48
20260830201153 29 270 12.9 20.9 0.00 0.00 0.00 48
20260830200951 29 247 14.5 20.9 0.00 0.00 0.00 47
20260830200750 30 279 12.9 20.9 0.00 0.00 0.00 47
20260830200547 29 257 8.0 19.3 0.00 0.00 0.00 48
20260830200345 29 278 6.4 19.3 0.00 0.00 0.00 48
20260830200142 29 272 14.5 19.3 0.00 0.00 0.00 49
20260830195940 28 251 4.8 19.3 0.00 0.00 0.00 50
20260830195740 28 265 8.0 19.3 0.00 0.00 0.00 52
20260830195336 28 288 9.7 19.3 0.00 0.00 0.00 51
20260830195134 28 271 9.7 20.9 0.00 0.00 0.00 51
20260830194930 28 248 14.5 20.9 0.00 0.00 0.00 50
20260830194528 28 241 17.7 19.3 0.00 0.00 0.00 52
20260830194326 28 264 11.3 19.3 0.00 0.00 0.00 51
20260830194125 28 270 14.5 20.9 0.00 0.00 0.00 50
20260830193920 28 260 14.5 20.9 0.00 0.00 0.00 50
20260830193718 28 240 4.8 27.4 0.00 0.00 0.00 49
20260830193516 28 271 9.7 27.4 0.00 0.00 0.00 49
20260830193316 28 255 11.3 27.4 0.00 0.00 0.00 50
20260830192912 28 270 20.9 24.1 0.00 0.00 0.00 49
20260830192708 28 239 16.1 24.1 0.00 0.00 0.00 50
20260830192507 28 271 14.5 24.1 0.00 0.00 0.00 50
20260830192307 28 261 19.3 24.1 0.00 0.00 0.00 51
20260830191701 28 268 12.9 22.5 0.00 0.00 0.00 49
20260830191459 28 247 11.3 22.5 0.00 0.00 0.00 50
20260830191257 28 264 11.3 22.5 0.00 0.00 0.00 51
20260830191055 28 248 11.3 20.9 0.00 0.00 0.00 51
20260830190651 28 239 16.1 24.1 0.00 0.00 0.00 51
20260830190449 28 264 19.3 24.1 0.00 0.00 0.00 51
20260830190247 28 246 11.3 24.1 0.00 0.00 0.00 51
20260830190045 28 274 17.7 24.1 0.00 0.00 0.00 51
20260830185843 28 282 9.7 24.1 0.00 0.00 0.00 52
20260830185639 28 274 17.7 22.5 0.00 0.00 0.00 53
20260830185437 27 270 16.1 22.5 0.00 0.00 0.00 52
20260830185237 28 257 16.1 24.1 0.00 0.00 0.00 52
20260830185035 27 257 12.9 24.1 0.00 0.00 0.00 52
20260830184831 27 265 11.3 24.1 0.00 0.00 0.00 52
20260830184631 27 268 14.5 24.1 0.00 0.00 0.00 52
20260830184429 27 267 16.1 24.1 0.00 0.00 0.00 52
20260830184024 28 251 17.7 20.9 0.00 0.00 0.00 52
20260830183824 28 267 11.3 20.9 0.00 0.00 0.00 52
20260830183622 27 281 8.0 20.9 0.00 0.00 0.00 53
20260830183418 27 254 19.3 20.9 0.00 0.00 0.00 53
20260830183217 27 272 17.7 20.9 0.00 0.00 0.00 53
20260830183014 27 275 11.3 20.9 0.00 0.00 0.00 53
20260830182812 27 265 14.5 20.9 0.00 0.00 0.00 54
20260830182610 27 261 16.1 19.3 0.00 0.00 0.00 54
20260830182208 27 247 17.7 17.7 0.00 0.00 0.00 53
20260830181804 27 296 8.0 17.7 0.00 0.00 0.00 53
20260830181156 28 284 11.3 17.7 0.00 0.00 0.00 51
20260830180956 28 292 4.8 17.7 0.00 0.00 0.00 51
20260830180753 28 275 14.5 17.7 0.00 0.00 0.00 50
20260830180552 28 267 12.9 16.1 0.00 0.00 0.00 49
20260830180350 28 260 14.5 16.1 0.00 0.00 0.00 49
20260830180147 28 257 8.0 14.5 0.00 0.00 0.00 49
20260830175946 28 292 8.0 14.5 0.00 0.00 0.00 49
20260830175744 28 295 8.0 16.1 0.00 0.00 0.00 49
20260830175541 28 261 3.2 16.1 0.00 0.00 0.00 50
20260830175340 28 261 11.3 16.1 0.00 0.00 0.00 50
20260830175139 28 258 12.9 17.7 0.00 0.00 0.00 49
20260830174936 28 279 6.4 17.7 0.00 0.00 0.00 50
20260830174734 28 288 8.0 16.1 0.00 0.00 0.00 50
20260830174533 28 260 4.8 16.1 0.00 0.00 0.00 51
20260830174329 27 295 3.2 16.1 0.00 0.00 0.00 51
20260830174129 28 260 11.3 14.5 0.00 0.00 0.00 51
20260830173925 27 282 9.7 14.5 0.00 0.00 0.00 52
20260830173725 27 286 8.0 16.1 0.00 0.00 0.00 51
20260830173523 28 291 1.6 16.1 0.00 0.00 0.00 51
20260830173321 28 250 11.3 16.1 0.00 0.00 0.00 50
20260830173119 28 265 14.5 9.7 0.00 0.00 0.00 49
20260830172915 28 277 4.8 9.7 0.00 0.00 0.00 48
20260830172511 28 112 0.0 6.4 0.00 0.00 0.00 48
20260830172311 28 112 0.0 6.4 0.00 0.00 0.00 47
20260830172109 28 112 0.0 8.0 0.00 0.00 0.00 47
20260830171907 28 120 1.6 8.0 0.00 0.00 0.00 47
20260830171501 28 126 1.6 9.7 0.00 0.00 0.00 48
20260830171259 28 127 4.8 9.7 0.00 0.00 0.00 48
20260830171059 28 149 4.8 8.0 0.00 0.00 0.00 48
20260830170858 28 113 6.4 8.0 0.00 0.00 0.00 48
20260830170655 28 144 0.0 9.7 0.00 0.00 0.00 49
20260830170454 28 125 4.8 9.7 0.00 0.00 0.00 50
20260830170252 27 125 4.8 9.7 0.00 0.00 0.00 52
20260830165644 27 64 0.0 8.0 0.00 0.00 0.00 54
20260830165443 27 64 0.0 8.0 0.00 0.00 0.00 54
20260830165242 26 119 4.8 9.7 0.00 0.00 0.00 54
20260830165040 26 130 1.6 9.7 0.00 0.00 0.00 55
20260830164836 26 126 3.2 9.7 0.00 0.00 0.00 55
20260830164636 26 139 4.8 11.3 0.00 0.00 0.00 56
20260830164435 26 161 4.8 11.3 0.00 0.00 0.00 56
20260830164230 26 99 6.4 11.3 0.00 0.00 0.00 56
20260830164030 26 120 6.4 11.3 0.00 0.00 0.00 57
20260830163826 26 136 6.4 11.3 0.00 0.00 0.00 57
20260830163626 26 106 8.0 9.7 0.00 0.00 0.00 57
20260830163424 26 112 3.2 9.7 0.00 0.00 0.00 58
20260830163220 26 143 3.2 8.0 0.00 0.00 0.00 59
20260830163018 26 92 8.0 8.0 0.00 0.00 0.00 59
20260830162816 25 136 3.2 8.0 0.00 0.00 0.00 60
20260830162614 25 99 4.8 6.4 0.00 0.00 0.00 61
20260830162414 25 109 4.8 6.4 0.00 0.00 0.00 60
20260830162212 25 116 3.2 4.8 0.00 0.00 0.00 60
20260830162008 25 112 1.6 4.8 0.00 0.00 0.00 60
20260830161807 25 116 3.2 4.8 0.00 0.00 0.00 60
20260830161605 25 125 1.6 6.4 0.00 0.00 0.00 61
20260830161405 25 126 1.6 6.4 0.00 0.00 0.00 61
20260830161203 25 105 4.8 3.2 0.00 0.00 0.00 61
20260830160959 25 123 3.2 3.2 0.00 0.00 0.00 62
20260830160758 25 66 0.0 3.2 0.00 0.00 0.00 64
20260830160557 24 94 0.0 0.0 0.00 0.00 0.00 65
20260830160355 24 213 0.0 0.0 0.00 0.00 0.00 66
20260830155951 24 213 0.0 0.0 0.00 0.00 0.00 66
20260830155748 24 213 0.0 0.0 0.00 0.00 0.00 66
20260830155547 24 213 0.0 6.4 0.00 0.00 0.00 65
20260830155343 24 213 0.0 6.4 0.00 0.00 0.00 66
20260830155141 24 285 4.8 0.0 0.00 0.00 0.00 65
20260830154941 24 265 0.0 0.0 0.00 0.00 0.00 66
20260830154535 23 254 0.0 3.2 0.00 0.00 0.00 67
20260830154333 23 254 0.0 3.2 0.00 0.00 0.00 68
20260830154131 23 254 0.0 3.2 0.00 0.00 0.00 68
20260830153929 23 254 0.0 3.2 0.00 0.00 0.00 68
20260830153729 23 310 1.6 4.8 0.00 0.00 0.00 68
20260830153527 23 84 0.0 4.8 0.00 0.00 0.00 69
20260830153325 23 84 0.0 4.8 0.00 0.00 0.00 70
20260830153123 23 77 0.0 4.8 0.00 0.00 0.00 70
20260830152921 23 99 0.0 4.8 0.00 0.00 0.00 70
20260830152719 23 147 3.2 0.0 0.00 0.00 0.00 71
20260830152515 22 142 0.0 0.0 0.00 0.00 0.00 71
20260830152315 22 68 0.0 0.0 0.00 0.00 0.00 73
20260830151910 22 68 0.0 0.0 0.00 0.00 0.00 75
20260830151709 22 68 0.0 0.0 0.00 0.00 0.00 76
20260830151508 21 68 0.0 0.0 0.00 0.00 0.00 77
20260830151305 21 68 0.0 0.0 0.00 0.00 0.00 78
20260830151103 21 68 0.0 0.0 0.00 0.00 0.00 80
20260830150902 20 68 0.0 0.0 0.00 0.00 0.00 80
20260830150700 20 68 0.0 3.2 0.00 0.00 0.00 81
20260830150456 20 68 0.0 3.2 0.00 0.00 0.00 81
20260830150256 20 68 0.0 3.2 0.00 0.00 0.00 82
20260830150054 20 68 0.0 3.2 0.00 0.00 0.00 82
20260830145851 20 119 1.6 3.2 0.00 0.00 0.00 83
20260830145448 20 248 0.0 0.0 0.00 0.00 0.00 84
20260830145246 20 248 0.0 0.0 0.00 0.00 0.00 85
20260830145045 19 248 0.0 0.0 0.00 0.00 0.00 85
20260830144842 19 248 0.0 0.0 0.00 0.00 0.00 85
20260830144639 19 248 0.0 0.0 0.00 0.00 0.00 85
20260830144439 19 248 0.0 0.0 0.00 0.00 0.00 85
20260830144236 19 248 0.0 0.0 0.00 0.00 0.00 85
20260830144035 19 248 0.0 0.0 0.00 0.00 0.00 85
20260830143831 19 248 0.0 0.0 0.00 0.00 0.00 86
20260830143629 19 248 0.0 0.0 0.00 0.00 0.00 86
20260830143227 18 248 0.0 0.0 0.00 0.00 0.00 86
20260830143025 18 248 0.0 0.0 0.00 0.00 0.00 86
20260830142824 18 248 0.0 0.0 0.00 0.00 0.00 86
20260830142622 18 248 0.0 0.0 0.00 0.00 0.00 86
20260830142419 18 248 0.0 0.0 0.00 0.00 0.00 87
20260830142016 18 248 0.0 0.0 0.00 0.00 0.00 87
20260830141814 18 248 0.0 0.0 0.00 0.00 0.00 88
20260830141410 18 248 0.0 4.8 0.00 0.00 0.00 88
20260830141206 18 248 0.0 0.0 0.00 0.00 0.00 88
20260830141004 18 286 1.6 0.0 0.00 0.00 0.00 88
20260830140803 18 291 0.0 0.0 0.00 0.00 0.00 88
20260830140601 18 291 0.0 0.0 0.00 0.00 0.00 89
20260830140401 18 291 0.0 0.0 0.00 0.00 0.00 88
20260830140159 18 291 0.0 0.0 0.00 0.00 0.00 88
20260830135955 18 291 0.0 0.0 0.00 0.00 0.00 88
20260830135755 18 291 0.0 0.0 0.00 0.00 0.00 88
20260830135551 17 291 0.0 0.0 0.00 0.00 0.00 88
20260830135351 17 291 0.0 0.0 0.00 0.00 0.00 88
20260830135147 17 291 0.0 0.0 0.00 0.00 0.00 88
20260830134947 17 291 0.0 0.0 0.00 0.00 0.00 88
20260830134745 17 291 0.0 0.0 0.00 0.00 0.00 88
20260830134543 17 291 0.0 0.0 0.00 0.00 0.00 88
20260830134342 17 291 0.0 0.0 0.00 0.00 0.00 88
20260830134140 17 291 0.0 0.0 0.00 0.00 0.00 88
20260830133938 17 291 0.0 0.0 0.00 0.00 0.00 88
20260830133736 18 291 0.0 0.0 0.00 0.00 0.00 88
20260830133330 18 291 0.0 0.0 0.00 0.00 0.00 88
20260830133128 18 291 0.0 0.0 0.00 0.00 0.00 88
20260830132928 18 291 0.0 0.0 0.00 0.00 0.00 89
20260830132726 18 291 0.0 0.0 0.00 0.00 0.00 89
20260830132523 18 291 0.0 0.0 0.00 0.00 0.00 89
20260830132120 18 291 0.0 0.0 0.00 0.00 0.00 88
20260830131716 18 291 0.0 0.0 0.00 0.00 0.00 88
20260830131515 18 291 0.0 0.0 0.00 0.00 0.00 88
20260830131111 18 291 0.0 0.0 0.00 0.00 0.00 88
20260830130909 18 291 0.0 0.0 0.00 0.00 0.00 88
20260830130707 18 291 0.0 0.0 0.00 0.00 0.00 89
20260830130101 18 291 0.0 0.0 0.00 0.00 0.00 88
20260830125859 18 291 0.0 0.0 0.00 0.00 0.00 88
20260830125656 18 291 0.0 0.0 0.00 0.00 0.00 88
20260830125455 18 291 0.0 0.0 0.00 0.00 0.00 88
20260830125254 18 291 0.0 0.0 0.00 0.00 0.00 88
20260830125054 18 291 0.0 0.0 0.00 0.00 0.00 88
20260830124848 18 291 0.0 0.0 0.00 0.00 0.00 88
20260830124648 18 291 0.0 0.0 0.00 0.00 0.00 88
20260830124446 18 291 0.0 0.0 0.00 0.00 0.00 88
20260830124245 18 291 0.0 0.0 0.00 0.00 0.00 88
20260830124042 18 291 0.0 0.0 0.00 0.00 0.00 88
20260830123840 18 291 0.0 0.0 0.00 0.00 0.00 88
20260830123639 18 291 0.0 0.0 0.00 0.00 0.00 88
20260830123438 18 291 0.0 0.0 0.00 0.00 0.00 88
20260830123235 18 291 0.0 0.0 0.00 0.00 0.00 88
20260830123033 18 291 0.0 0.0 0.00 0.00 0.00 88
20260830122831 18 291 0.0 0.0 0.00 0.00 0.00 88
20260830122627 18 291 0.0 0.0 0.00 0.00 0.00 88
20260830122427 18 291 0.0 0.0 0.00 0.00 0.00 88
20260830122225 18 291 0.0 0.0 0.00 0.00 0.00 88
20260830121821 18 291 0.0 0.0 0.00 0.00 0.00 88
20260830121619 18 291 0.0 0.0 0.00 0.00 0.00 88
20260830121418 18 291 0.0 0.0 0.00 0.00 0.00 88
20260830121216 18 291 0.0 0.0 0.00 0.00 0.00 88
20260830121012 18 291 0.0 0.0 0.00 0.00 0.00 88
20260830120812 18 291 0.0 0.0 0.00 0.00 0.00 88
20260830120610 18 291 0.0 0.0 0.00 0.00 0.00 88
20260830120408 18 291 0.0 0.0 0.00 0.00 0.00 88
20260830120206 18 291 0.0 0.0 0.00 0.00 0.00 88
20260830120004 18 291 0.0 0.0 0.00 0.00 0.00 88
20260830115802 18 291 0.0 0.0 0.00 0.00 0.00 88
20260830115600 18 291 0.0 0.0 0.00 0.00 0.00 88
20260830115359 18 291 0.0 0.0 0.00 0.00 0.00 87
20260830115157 18 291 0.0 0.0 0.00 0.00 0.00 87
20260830114954 18 291 0.0 0.0 0.00 0.00 0.00 87
20260830114551 18 291 0.0 0.0 0.00 0.00 0.00 87
20260830114349 18 291 0.0 0.0 0.00 0.00 0.00 87
20260830114147 18 291 0.0 0.0 0.00 0.00 0.00 88
20260830113945 18 291 0.0 0.0 0.00 0.00 0.00 88
20260830113743 18 291 0.0 0.0 0.00 0.00 0.00 87
20260830113541 18 291 0.0 0.0 0.00 0.00 0.00 87
20260830113339 18 291 0.0 0.0 0.00 0.00 0.00 87
20260830113137 18 291 0.0 0.0 0.00 0.00 0.00 87
20260830112936 18 291 0.0 0.0 0.00 0.00 0.00 87
20260830112734 18 291 0.0 0.0 0.00 0.00 0.00 87
20260830112328 18 291 0.0 0.0 0.00 0.00 0.00 87
20260830112126 18 291 0.0 0.0 0.00 0.00 0.00 87
20260830111926 18 291 0.0 0.0 0.00 0.00 0.00 87
20260830111724 18 291 0.0 0.0 0.00 0.00 0.00 87
20260830111521 18 291 0.0 0.0 0.00 0.00 0.00 87
20260830111321 18 291 0.0 0.0 0.00 0.00 0.00 87
20260830111118 18 291 0.0 0.0 0.00 0.00 0.00 86
20260830110915 18 291 0.0 0.0 0.00 0.00 0.00 86
20260830110714 18 291 0.0 0.0 0.00 0.00 0.00 86
20260830110513 18 291 0.0 0.0 0.00 0.00 0.00 86
20260830110311 18 291 0.0 0.0 0.00 0.00 0.00 86
20260830110109 18 291 0.0 0.0 0.00 0.00 0.00 86
20260830105907 18 291 0.0 0.0 0.00 0.00 0.00 86
20260830105706 18 291 0.0 0.0 0.00 0.00 0.00 86
20260830105300 18 291 0.0 0.0 0.00 0.00 0.00 86
20260830105059 19 291 0.0 0.0 0.00 0.00 0.00 86
20260830104858 19 291 0.0 0.0 0.00 0.00 0.00 86
20260830104654 19 291 0.0 0.0 0.00 0.00 0.00 86
20260830104454 19 291 0.0 0.0 0.00 0.00 0.00 86
20260830104252 19 291 0.0 0.0 0.00 0.00 0.00 86
20260830104050 19 291 0.0 0.0 0.00 0.00 0.00 86
20260830103848 19 291 0.0 0.0 0.00 0.00 0.00 86
20260830103646 19 291 0.0 0.0 0.00 0.00 0.00 86
20260830103445 19 291 0.0 0.0 0.00 0.00 0.00 86
20260830103242 19 291 0.0 0.0 0.00 0.00 0.00 86
20260830103039 19 291 0.0 0.0 0.00 0.00 0.00 86
20260830102838 19 291 0.0 0.0 0.00 0.00 0.00 86
20260830102637 19 291 0.0 0.0 0.00 0.00 0.00 86
20260830102435 19 291 0.0 0.0 0.00 0.00 0.00 86
20260830102233 19 291 0.0 0.0 0.00 0.00 0.00 86
20260830102031 19 291 0.0 0.0 0.00 0.00 0.00 85
20260830101828 19 291 0.0 0.0 0.00 0.00 0.00 85
20260830101627 19 291 0.0 0.0 0.00 0.00 0.00 85
20260830101425 19 291 0.0 0.0 0.00 0.00 0.00 85
20260830101223 19 291 0.0 0.0 0.00 0.00 0.00 85
20260830101021 19 291 0.0 0.0 0.00 0.00 0.00 85
20260830100618 19 291 0.0 0.0 0.00 0.00 0.00 85
20260830100414 19 291 0.0 0.0 0.00 0.00 0.00 85
20260830095810 20 291 0.0 0.0 0.00 0.00 0.00 85
20260830095608 19 291 0.0 0.0 0.00 0.00 0.00 85
20260830095202 20 291 0.0 0.0 0.00 0.00 0.00 85
20260830094559 20 291 0.0 4.8 0.00 0.00 0.00 85
20260830094357 20 291 0.0 4.8 0.00 0.00 0.00 85
20260830094153 20 291 0.0 8.0 0.00 0.00 0.00 85
20260830093749 20 309 4.8 8.0 0.00 0.00 0.00 85
20260830093549 20 285 6.4 8.0 0.00 0.00 0.00 85
20260830093347 20 306 6.4 8.0 0.00 0.00 0.00 84
20260830093145 20 316 6.4 6.4 0.00 0.00 0.00 84
20260830092943 20 309 4.8 6.4 0.00 0.00 0.00 84
20260830092741 20 307 4.8 6.4 0.00 0.00 0.00 84
20260830092539 20 298 4.8 6.4 0.00 0.00 0.00 84
20260830092337 20 295 3.2 6.4 0.00 0.00 0.00 84
20260830092135 20 289 4.8 6.4 0.00 0.00 0.00 84
20260830091932 20 299 4.8 6.4 0.00 0.00 0.00 84
20260830091732 20 298 1.6 9.7 0.00 0.00 0.00 83
20260830091328 20 296 3.2 9.7 0.00 0.00 0.00 84
20260830091124 20 272 6.4 11.3 0.00 0.00 0.00 84
20260830090924 20 282 6.4 11.3 0.00 0.00 0.00 84
20260830090721 20 282 9.7 8.0 0.00 0.00 0.00 83
20260830090520 20 278 9.7 8.0 0.00 0.00 0.00 83
20260830090318 20 281 8.0 8.0 0.00 0.00 0.00 83
20260830090115 20 286 6.4 6.4 0.00 0.00 0.00 83
20260830085915 20 284 4.8 6.4 0.00 0.00 0.00 83
20260830085711 20 300 3.2 9.7 0.00 0.00 0.00 83
20260830085509 20 295 6.4 9.7 0.00 0.00 0.00 83
20260830085307 20 298 4.8 9.7 0.00 0.00 0.00 83
20260830085105 20 298 6.4 8.0 0.00 0.00 0.00 83
20260830084903 20 299 3.2 8.0 0.00 0.00 0.00 83
20260830084702 20 291 6.4 8.0 0.00 0.00 0.00 82
20260830084500 20 282 6.4 8.0 0.00 0.00 0.00 83
20260830084258 20 292 6.4 8.0 0.00 0.00 0.00 82
20260830084058 20 295 8.0 8.0 0.00 0.00 0.00 82
20260830083854 20 296 6.4 8.0 0.00 0.00 0.00 82
20260830083652 20 299 4.8 4.8 0.00 0.00 0.00 81
20260830083450 20 299 4.8 4.8 0.00 0.00 0.00 81
20260830083250 20 303 1.6 4.8 0.00 0.00 0.00 81
20260830083046 20 299 3.2 4.8 0.00 0.00 0.00 81
20260830082846 20 292 4.8 4.8 0.00 0.00 0.00 81
20260830082642 20 298 3.2 4.8 0.00 0.00 0.00 80
20260830082442 20 295 3.2 4.8 0.00 0.00 0.00 81
20260830082038 20 288 3.2 0.0 0.00 0.00 0.00 80
20260830081836 20 285 0.0 0.0 0.00 0.00 0.00 80
20260830081632 20 285 0.0 0.0 0.00 0.00 0.00 80
20260830081430 20 285 0.0 0.0 0.00 0.00 0.00 80
20260830081229 20 285 0.0 0.0 0.00 0.00 0.00 80
20260830081027 20 285 0.0 0.0 0.00 0.00 0.00 80
20260830080826 20 285 0.0 0.0 0.00 0.00 0.00 80
20260830080625 20 285 0.0 0.0 0.00 0.00 0.00 80
20260830080219 20 285 0.0 0.0 0.00 0.00 0.00 80
20260830080017 20 285 0.0 0.0 0.00 0.00 0.00 79
20260830075815 21 285 0.0 0.0 0.00 0.00 0.00 79
20260830075613 21 285 0.0 0.0 0.00 0.00 0.00 79
20260830075411 21 285 0.0 0.0 0.00 0.00 0.00 79
20260830075211 21 285 0.0 0.0 0.00 0.00 0.00 79
20260830075007 21 285 0.0 0.0 0.00 0.00 0.00 79
20260830074805 21 285 0.0 0.0 0.00 0.00 0.00 79
20260830074603 21 285 0.0 0.0 0.00 0.00 0.00 78
20260830074403 21 285 0.0 0.0 0.00 0.00 0.00 78
20260830074153 21 285 0.0 0.0 0.00 0.00 0.00 78
20260830073959 21 285 0.0 0.0 0.00 0.00 0.00 78
20260830073755 21 285 0.0 0.0 0.00 0.00 0.00 78
20260830073553 21 285 0.0 0.0 0.00 0.00 0.00 78
20260830073353 21 285 0.0 0.0 0.00 0.00 0.00 78
20260830073149 21 285 0.0 0.0 0.00 0.00 0.00 78
20260830072947 21 285 0.0 0.0 0.00 0.00 0.00 78
20260830072745 21 285 0.0 3.2 0.00 0.00 0.00 79
20260830072543 21 285 0.0 3.2 0.00 0.00 0.00 79
20260830072341 21 285 0.0 3.2 0.00 0.00 0.00 79
20260830072139 21 285 0.0 4.8 0.00 0.00 0.00 79
20260830071937 21 285 0.0 4.8 0.00 0.00 0.00 79
20260830071737 21 299 3.2 6.4 0.00 0.00 0.00 79
20260830071534 21 274 0.0 6.4 0.00 0.00 0.00 79
20260830071131 21 274 0.0 6.4 0.00 0.00 0.00 79
20260830070929 21 309 3.2 6.4 0.00 0.00 0.00 79
20260830070728 21 300 4.8 6.4 0.00 0.00 0.00 79
20260830070525 21 292 4.8 6.4 0.00 0.00 0.00 79
20260830070323 21 298 3.2 6.4 0.00 0.00 0.00 79
20260830070120 21 293 3.2 6.4 0.00 0.00 0.00 79
20260830065920 21 298 4.8 6.4 0.00 0.00 0.00 79
20260830065718 21 285 4.8 6.4 0.00 0.00 0.00 79
20260830065514 21 305 4.8 6.4 0.00 0.00 0.00 79
20260830065314 21 312 4.8 6.4 0.00 0.00 0.00 79
20260830065112 21 302 4.8 8.0 0.00 0.00 0.00 79
20260830064908 21 303 4.8 8.0 0.00 0.00 0.00 78
20260830064706 21 303 3.2 8.0 0.00 0.00 0.00 78
20260830064506 21 298 6.4 8.0 0.00 0.00 0.00 78
20260830064303 21 300 4.8 8.0 0.00 0.00 0.00 78
20260830064100 21 292 6.4 4.8 0.00 0.00 0.00 78
20260830063900 21 306 4.8 4.8 0.00 0.00 0.00 78
20260830063658 21 302 3.2 6.4 0.00 0.00 0.00 78
20260830063454 21 291 1.6 6.4 0.00 0.00 0.00 78
20260830063051 21 282 6.4 4.8 0.00 0.00 0.00 78
20260830062850 21 288 4.8 4.8 0.00 0.00 0.00 78
20260830062647 21 285 4.8 8.0 0.00 0.00 0.00 77
20260830062445 21 292 3.2 8.0 0.00 0.00 0.00 77
20260830062245 21 295 3.2 11.3 0.00 0.00 0.00 77
20260830062041 21 289 4.8 11.3 0.00 0.00 0.00 77
20260830061839 21 291 6.4 11.3 0.00 0.00 0.00 77
20260830061639 21 286 8.0 11.3 0.00 0.00 0.00 77
20260830061435 21 284 9.7 11.3 0.00 0.00 0.00 77
20260830061235 21 277 6.4 11.3 0.00 0.00 0.00 76
20260830061031 21 277 9.7 11.3 0.00 0.00 0.00 76
20260830060831 21 275 8.0 11.3 0.00 0.00 0.00 75
20260830060627 22 268 8.0 8.0 0.00 0.00 0.00 75
20260830060425 22 275 9.7 8.0 0.00 0.00 0.00 74
20260830060223 22 293 6.4 6.4 0.00 0.00 0.00 74
20260830060021 22 293 6.4 6.4 0.00 0.00 0.00 74
20260830055819 22 293 6.4 6.4 0.00 0.00 0.00 74
20260830055617 22 285 4.8 6.4 0.00 0.00 0.00 74
20260830055415 22 281 4.8 6.4 0.00 0.00 0.00 74
20260830055213 22 288 4.8 9.7 0.00 0.00 0.00 74
20260830055011 22 289 4.8 9.7 0.00 0.00 0.00 73
20260830054809 22 298 6.4 9.7 0.00 0.00 0.00 73
20260830054405 22 285 8.0 9.7 0.00 0.00 0.00 72
20260830054203 22 282 8.0 8.0 0.00 0.00 0.00 72
20260830054001 22 284 8.0 8.0 0.00 0.00 0.00 71
20260830053759 22 279 6.4 8.0 0.00 0.00 0.00 71
20260830053558 22 299 6.4 0.0 0.00 0.00 0.00 71
20260830053356 22 299 4.8 0.0 0.00 0.00 0.00 71
20260830053154 22 285 0.0 0.0 0.00 0.00 0.00 70
20260830052750 22 285 0.0 0.0 0.00 0.00 0.00 70
20260830052548 22 285 0.0 0.0 0.00 0.00 0.00 70
20260830052346 22 285 0.0 0.0 0.00 0.00 0.00 70
20260830052144 23 285 0.0 0.0 0.00 0.00 0.00 69
20260830051740 22 285 0.0 0.0 0.00 0.00 0.00 69
20260830051336 23 285 0.0 0.0 0.00 0.00 0.00 69
20260830050932 23 285 0.0 0.0 0.00 0.00 0.00 68
20260830050730 23 285 0.0 0.0 0.00 0.00 0.00 68
20260830050528 23 285 0.0 0.0 0.00 0.00 0.00 68
20260830050326 23 285 0.0 0.0 0.00 0.00 0.00 68
20260830050124 23 285 0.0 0.0 0.00 0.00 0.00 69
20260830045922 23 285 0.0 0.0 0.00 0.00 0.00 69
20260830045720 23 285 0.0 0.0 0.00 0.00 0.00 69
20260830045518 23 285 0.0 0.0 0.00 0.00 0.00 69
20260830045316 23 285 0.0 0.0 0.00 0.00 0.00 69
20260830045114 23 285 0.0 0.0 0.00 0.00 0.00 68
20260830044912 23 285 0.0 0.0 0.00 0.00 0.00 69
20260830044710 23 285 0.0 0.0 0.00 0.00 0.00 69
20260830044508 23 285 0.0 0.0 0.00 0.00 0.00 69
20260830044307 23 285 0.0 0.0 0.00 0.00 0.00 69
20260830044110 23 285 0.0 0.0 0.00 0.00 0.00 68
20260830044105 23 285 0.0 0.0 0.00 0.00 0.00 68
20260830043903 23 285 0.0 0.0 0.00 0.00 0.00 68
20260830043701 23 285 0.0 0.0 0.00 0.00 0.00 68
20260830043459 23 285 0.0 0.0 0.00 0.00 0.00 68
20260830043055 23 285 0.0 0.0 0.00 0.00 0.00 68
20260830042853 23 285 0.0 0.0 0.00 0.00 0.00 68
20260830042651 23 285 0.0 0.0 0.00 0.00 0.00 68